This is the latest recevied weather packets stored in our database for station/object DO0SOB-11. If no packets are shown the sender has not sent any weather packets the latest 10 day(s).
| Time | Temp. | Humidity | Pressure | Rain* | Wind** | Luminosity | Snow |
|---|---|---|---|---|---|---|---|
| 1787704710 | 14.44° C | 100% | 978.3 hPa | - | - | - | - |
| 1787703690 | 14.44° C | 100% | 978.3 hPa | - | - | - | - |
| 1787702670 | 14.44° C | 100% | 978.5 hPa | - | - | - | - |
| 1787701649 | 14.44° C | 100% | 978.4 hPa | - | - | - | - |
| 1787700629 | 13.89° C | 100% | 978.5 hPa | - | - | - | - |
| 1787699609 | 15° C | 100% | 978.3 hPa | - | - | - | - |
| 1787698589 | 14.44° C | 100% | 978.3 hPa | - | - | - | - |
| 1787697569 | 14.44° C | 100% | 978.3 hPa | - | - | - | - |
| 1787696549 | 14.44° C | 100% | 978.2 hPa | - | - | - | - |
| 1787695529 | 14.44° C | 100% | 978.4 hPa | - | - | - | - |
| 1787694509 | 14.44° C | 100% | 978.4 hPa | - | - | - | - |
| 1787693489 | 15° C | 100% | 978.3 hPa | - | - | - | - |
| 1787692469 | 14.44° C | 100% | 978.4 hPa | - | - | - | - |
| 1787691449 | 14.44° C | 100% | 978.5 hPa | - | - | - | - |
| 1787690429 | 14.44° C | 100% | 978.5 hPa | - | - | - | - |
| 1787689408 | 14.44° C | 100% | 978.5 hPa | - | - | - | - |
| 1787688388 | 15° C | 100% | 978.4 hPa | - | - | - | - |
| 1787687368 | 16.11° C | 100% | 978.4 hPa | - | - | - | - |
| 1787686348 | 16.67° C | 100% | 978.4 hPa | - | - | - | - |
| 1787685328 | 17.22° C | 100% | 978.3 hPa | - | - | - | - |
| 1787684308 | 17.22° C | 100% | 978.2 hPa | - | - | - | - |
| 1787683288 | 17.78° C | 100% | 978.1 hPa | - | - | - | - |
| 1787682268 | 18.33° C | 100% | 977.7 hPa | - | - | - | - |
| 1787681248 | 18.33° C | 100% | 977.5 hPa | - | - | - | - |
| 1787680228 | 18.89° C | 100% | 977.5 hPa | - | - | - | - |
* Rain since midnight (hover to see other rain measurements)
** Current wind speed in m/s (hover to see current wind gust speed)